Time,TemperatureF,DewpointF,PressureIn,WindDirection,WindDirectionDegrees,WindSpeedMPH,WindSpeedGustMPH,Humidity,HourlyPrecipIn,Conditions,Clouds,dailyrainin,SoftwareType,DateUTC
2013-10-12 00:00:00,42.9,40.2,30.28,NE,42,0.0,0.0,90,0.00,,,0.00,Wunderground v.1.15,2013-10-12 03:00:00,
2013-10-12 00:05:00,42.8,40.1,30.28,NE,51,1.0,1.0,90,0.00,,,0.00,Wunderground v.1.15,2013-10-12 03:05:00,
2013-10-12 00:10:00,42.7,40.0,30.28,ENE,69,1.0,1.0,90,0.00,,,0.00,Wunderground v.1.15,2013-10-12 03:10:00,
2013-10-12 00:15:00,42.6,39.9,30.28,NE,36,1.0,1.0,90,0.00,,,0.00,Wunderground v.1.15,2013-10-12 03:15:00,
2013-10-12 00:20:00,42.5,39.8,30.28,ENE,59,0.0,0.0,90,0.00,,,0.00,Wunderground v.1.15,2013-10-12 03:20:00,
2013-10-12 00:25:00,42.5,40.1,30.28,NE,55,0.0,0.0,91,0.00,,,0.00,Wunderground v.1.15,2013-10-12 03:25:00,
2013-10-12 00:30:00,42.5,40.1,30.28,NE,51,1.0,1.0,91,0.00,,,0.00,Wunderground v.1.15,2013-10-12 03:30:00,
2013-10-12 00:35:00,42.4,39.7,30.28,NE,47,0.0,1.0,90,0.00,,,0.00,Wunderground v.1.15,2013-10-12 03:35:00,
2013-10-12 00:40:00,42.4,40.0,30.28,NE,55,0.0,0.0,91,0.00,,,0.00,Wunderground v.1.15,2013-10-12 03:40:00,
2013-10-12 00:45:00,42.5,40.1,30.28,NE,40,0.0,0.0,91,0.00,,,0.00,Wunderground v.1.15,2013-10-12 03:45:00,
2013-10-12 00:50:00,42.5,39.8,30.28,NNE,24,0.0,0.0,90,0.00,,,0.00,Wunderground v.1.15,2013-10-12 03:50:00,
2013-10-12 00:55:00,42.4,39.7,30.28,NE,56,0.0,1.0,90,0.00,,,0.00,Wunderground v.1.15,2013-10-12 03:55:00,
2013-10-12 01:00:00,42.4,39.7,30.28,NE,39,0.0,0.0,90,0.00,,,0.00,Wunderground v.1.15,2013-10-12 04:00:00,
2013-10-12 01:05:00,42.4,39.7,30.28,NE,44,0.0,0.0,90,0.00,,,0.00,Wunderground v.1.15,2013-10-12 04:05:00,
2013-10-12 01:10:00,42.3,39.6,30.28,NE,44,0.0,0.0,90,0.00,,,0.00,Wunderground v.1.15,2013-10-12 04:10:00,
2013-10-12 01:20:00,42.1,39.4,30.28,NE,44,0.0,0.0,90,0.00,,,0.00,Wunderground v.1.15,2013-10-12 04:20:00,
2013-10-12 01:25:00,42.0,39.3,30.29,NE,44,0.0,0.0,90,0.00,,,0.00,Wunderground v.1.15,2013-10-12 04:25:00,
2013-10-12 01:35:00,41.8,39.1,30.29,NNE,31,0.0,1.0,90,0.00,,,0.00,Wunderground v.1.15,2013-10-12 04:35:00,
2013-10-12 01:40:00,41.9,39.5,30.29,NE,46,0.0,1.0,91,0.00,,,0.00,Wunderground v.1.15,2013-10-12 04:40:00,
2013-10-12 01:45:00,42.0,39.3,30.29,NE,49,1.0,1.0,90,0.00,,,0.00,Wunderground v.1.15,2013-10-12 04:45:00,
2013-10-12 01:50:00,42.1,39.4,30.29,East,80,1.0,1.0,90,0.00,,,0.00,Wunderground v.1.15,2013-10-12 04:50:00,
2013-10-12 01:55:00,42.2,39.2,30.29,ENE,59,1.0,1.0,89,0.00,,,0.00,Wunderground v.1.15,2013-10-12 04:55:00,
2013-10-12 02:00:00,42.2,39.2,30.29,ENE,61,1.0,1.0,89,0.00,,,0.00,Wunderground v.1.15,2013-10-12 05:00:00,
2013-10-12 02:05:00,42.1,39.1,30.29,ENE,60,0.0,1.0,89,0.00,,,0.00,Wunderground v.1.15,2013-10-12 05:05:00,
2013-10-12 02:10:00,42.0,39.0,30.30,NE,50,0.0,0.0,89,0.00,,,0.00,Wunderground v.1.15,2013-10-12 05:10:00,
2013-10-12 02:15:00,41.8,38.8,30.30,NE,50,0.0,0.0,89,0.00,,,0.00,Wunderground v.1.15,2013-10-12 05:15:00,
2013-10-12 02:20:00,41.7,38.7,30.30,NE,44,0.0,0.0,89,0.00,,,0.00,Wunderground v.1.15,2013-10-12 05:20:00,
2013-10-12 02:25:00,41.6,38.6,30.30,ENE,69,0.0,0.0,89,0.00,,,0.00,Wunderground v.1.15,2013-10-12 05:25:00,
2013-10-12 02:30:00,41.6,38.6,30.30,NE,56,0.0,0.0,89,0.00,,,0.00,Wunderground v.1.15,2013-10-12 05:30:00,
2013-10-12 02:35:00,41.4,38.4,30.30,NE,56,0.0,0.0,89,0.00,,,0.00,Wunderground v.1.15,2013-10-12 05:35:00,
2013-10-12 02:40:00,41.4,38.7,30.30,ENE,57,0.0,0.0,90,0.00,,,0.00,Wunderground v.1.15,2013-10-12 05:40:00,
2013-10-12 02:45:00,41.4,38.7,30.30,ENE,57,0.0,0.0,90,0.00,,,0.00,Wunderground v.1.15,2013-10-12 05:45:00,
2013-10-12 02:55:00,41.1,38.1,30.30,ENE,57,0.0,0.0,89,0.00,,,0.00,Wunderground v.1.15,2013-10-12 05:55:00,
2013-10-12 03:00:00,40.9,38.2,30.30,ENE,57,0.0,0.0,90,0.00,,,0.00,Wunderground v.1.15,2013-10-12 06:00:00,
2013-10-12 03:05:00,40.8,38.1,30.30,ENE,57,0.0,0.0,90,0.00,,,0.00,Wunderground v.1.15,2013-10-12 06:05:00,
2013-10-12 03:10:00,40.6,37.9,30.30,ENE,57,0.0,0.0,90,0.00,,,0.00,Wunderground v.1.15,2013-10-12 06:10:00,
2013-10-12 03:15:00,40.4,37.7,30.30,ENE,57,0.0,0.0,90,0.00,,,0.00,Wunderground v.1.15,2013-10-12 06:15:00,
2013-10-12 03:20:00,40.3,37.9,30.30,ENE,57,0.0,0.0,91,0.00,,,0.00,Wunderground v.1.15,2013-10-12 06:20:00,
2013-10-12 03:30:00,39.9,37.5,30.30,ENE,57,0.0,0.0,91,0.00,,,0.00,Wunderground v.1.15,2013-10-12 06:30:00,
2013-10-12 03:35:00,39.8,37.4,30.31,ENE,57,0.0,0.0,91,0.00,,,0.00,Wunderground v.1.15,2013-10-12 06:35:00,
2013-10-12 03:40:00,39.7,37.3,30.31,ENE,57,0.0,0.0,91,0.00,,,0.00,Wunderground v.1.15,2013-10-12 06:40:00,
2013-10-12 03:45:00,39.6,37.2,30.31,ENE,57,0.0,0.0,91,0.00,,,0.00,Wunderground v.1.15,2013-10-12 06:45:00,
2013-10-12 03:50:00,39.4,37.0,30.31,ENE,57,0.0,0.0,91,0.00,,,0.00,Wunderground v.1.15,2013-10-12 06:50:00,
2013-10-12 03:55:00,39.2,36.8,30.31,ENE,57,0.0,0.0,91,0.00,,,0.00,Wunderground v.1.15,2013-10-12 06:55:00,
2013-10-12 04:00:00,39.0,36.6,30.31,ENE,57,0.0,0.0,91,0.00,,,0.00,Wunderground v.1.15,2013-10-12 07:00:00,
2013-10-12 04:05:00,38.9,36.8,30.31,ENE,57,0.0,0.0,92,0.00,,,0.00,Wunderground v.1.15,2013-10-12 07:05:00,
2013-10-12 04:10:00,38.7,36.6,30.32,ENE,57,0.0,0.0,92,0.00,,,0.00,Wunderground v.1.15,2013-10-12 07:10:00,
2013-10-12 04:15:00,38.5,36.4,30.32,ENE,57,0.0,0.0,92,0.00,,,0.00,Wunderground v.1.15,2013-10-12 07:15:00,
2013-10-12 04:25:00,38.1,36.0,30.32,ENE,57,0.0,0.0,92,0.00,,,0.00,Wunderground v.1.15,2013-10-12 07:25:00,
2013-10-12 04:30:00,38.0,35.9,30.32,ENE,57,0.0,0.0,92,0.00,,,0.00,Wunderground v.1.15,2013-10-12 07:30:00,
2013-10-12 04:35:00,37.9,35.8,30.32,ENE,57,0.0,0.0,92,0.00,,,0.00,Wunderground v.1.15,2013-10-12 07:35:00,
2013-10-12 04:40:00,37.8,35.7,30.32,ENE,57,0.0,0.0,92,0.00,,,0.00,Wunderground v.1.15,2013-10-12 07:40:00,
2013-10-12 04:45:00,37.7,35.6,30.33,ENE,57,0.0,0.0,92,0.00,,,0.00,Wunderground v.1.15,2013-10-12 07:45:00,
2013-10-12 04:50:00,37.9,36.3,30.33,NE,40,0.0,1.0,94,0.00,,,0.00,Wunderground v.1.15,2013-10-12 07:50:00,
2013-10-12 04:55:00,38.4,36.8,30.33,NE,49,1.0,1.0,94,0.00,,,0.00,Wunderground v.1.15,2013-10-12 07:55:00,
2013-10-12 05:00:00,38.9,37.0,30.33,NE,42,1.0,1.0,93,0.00,,,0.00,Wunderground v.1.15,2013-10-12 08:00:00,
2013-10-12 05:05:00,39.5,37.1,30.33,NE,47,1.0,1.0,91,0.00,,,0.00,Wunderground v.1.15,2013-10-12 08:05:00,
2013-10-12 05:15:00,40.0,37.0,30.34,NE,44,1.0,1.0,89,0.00,,,0.00,Wunderground v.1.15,2013-10-12 08:15:00,
2013-10-12 05:20:00,39.9,36.6,30.34,NE,55,0.0,0.0,88,0.00,,,0.00,Wunderground v.1.15,2013-10-12 08:20:00,
2013-10-12 05:25:00,39.8,36.5,30.34,NE,50,0.0,0.0,88,0.00,,,0.00,Wunderground v.1.15,2013-10-12 08:25:00,
2013-10-12 05:30:00,39.7,36.1,30.34,NE,50,0.0,0.0,87,0.00,,,0.00,Wunderground v.1.15,2013-10-12 08:30:00,
2013-10-12 05:35:00,39.5,36.2,30.34,NNE,23,0.0,0.0,88,0.00,,,0.00,Wunderground v.1.15,2013-10-12 08:35:00,
2013-10-12 05:40:00,39.4,36.1,30.35,NE,56,0.0,3.0,88,0.00,,,0.00,Wunderground v.1.15,2013-10-12 08:40:00,
2013-10-12 05:45:00,39.3,36.0,30.35,NNE,28,0.0,3.0,88,0.00,,,0.00,Wunderground v.1.15,2013-10-12 08:45:00,
2013-10-12 05:50:00,39.3,36.0,30.35,NE,34,0.0,0.0,88,0.00,,,0.00,Wunderground v.1.15,2013-10-12 08:50:00,
2013-10-12 05:55:00,39.2,35.9,30.35,NE,40,0.0,1.0,88,0.00,,,0.00,Wunderground v.1.15,2013-10-12 08:55:00,
2013-10-12 06:00:00,39.2,35.7,30.35,NE,51,0.0,0.0,87,0.00,,,0.00,Wunderground v.1.15,2013-10-12 09:00:00,
2013-10-12 06:05:00,39.1,35.6,30.35,ENE,57,0.0,0.0,87,0.00,,,0.00,Wunderground v.1.15,2013-10-12 09:05:00,
2013-10-12 06:10:00,39.1,35.6,30.35,NNE,30,0.0,1.0,87,0.00,,,0.00,Wunderground v.1.15,2013-10-12 09:10:00,
2013-10-12 06:15:00,39.2,35.7,30.35,NE,45,0.0,1.0,87,0.00,,,0.00,Wunderground v.1.15,2013-10-12 09:15:00,
2013-10-12 06:20:00,39.2,35.7,30.35,NE,34,1.0,1.0,87,0.00,,,0.00,Wunderground v.1.15,2013-10-12 09:20:00,
2013-10-12 06:25:00,39.5,36.0,30.35,NNE,32,1.0,1.0,87,0.00,,,0.00,Wunderground v.1.15,2013-10-12 09:25:00,
2013-10-12 06:30:00,39.8,36.0,30.35,NE,35,0.0,0.0,86,0.00,,,0.00,Wunderground v.1.15,2013-10-12 09:30:00,
2013-10-12 06:35:00,40.0,36.4,30.35,NE,35,0.0,0.0,87,0.00,,,0.00,Wunderground v.1.15,2013-10-12 09:35:00,
2013-10-12 06:40:00,40.3,36.7,30.35,NNE,16,0.0,0.0,87,0.00,,,0.00,Wunderground v.1.15,2013-10-12 09:40:00,
2013-10-12 06:45:00,40.4,36.5,30.36,NNE,16,0.0,0.0,86,0.00,,,0.00,Wunderground v.1.15,2013-10-12 09:45:00,
2013-10-12 06:50:00,40.4,36.5,30.36,NNE,16,0.0,0.0,86,0.00,,,0.00,Wunderground v.1.15,2013-10-12 09:50:00,
2013-10-12 06:55:00,40.4,36.5,30.36,NNE,20,0.0,0.0,86,0.00,,,0.00,Wunderground v.1.15,2013-10-12 09:55:00,
2013-10-12 07:00:00,40.2,36.3,30.36,NNE,20,0.0,0.0,86,0.00,,,0.00,Wunderground v.1.15,2013-10-12 10:00:00,
2013-10-12 07:05:00,40.0,36.2,30.36,NNE,22,0.0,0.0,86,0.00,,,0.00,Wunderground v.1.15,2013-10-12 10:05:00,
2013-10-12 07:10:00,39.7,35.9,30.36,NNE,22,0.0,0.0,86,0.00,,,0.00,Wunderground v.1.15,2013-10-12 10:10:00,
2013-10-12 07:15:00,39.5,35.7,30.37,NNE,22,0.0,0.0,86,0.00,,,0.00,Wunderground v.1.15,2013-10-12 10:15:00,
2013-10-12 07:20:00,39.3,35.5,30.37,NNE,22,0.0,0.0,86,0.00,,,0.00,Wunderground v.1.15,2013-10-12 10:20:00,
2013-10-12 07:25:00,38.9,35.1,30.37,NNE,22,0.0,0.0,86,0.00,,,0.00,Wunderground v.1.15,2013-10-12 10:25:00,
2013-10-12 07:35:00,38.4,34.9,30.37,NNE,22,0.0,0.0,87,0.00,,,0.00,Wunderground v.1.15,2013-10-12 10:35:00,
2013-10-12 07:40:00,38.2,35.0,30.37,NNE,22,0.0,0.0,88,0.00,,,0.00,Wunderground v.1.15,2013-10-12 10:40:00,
2013-10-12 07:45:00,38.2,35.0,30.37,NNE,28,0.0,0.0,88,0.00,,,0.00,Wunderground v.1.15,2013-10-12 10:45:00,
2013-10-12 07:55:00,38.4,35.2,30.38,NE,49,0.0,0.0,88,0.00,,,0.00,Wunderground v.1.15,2013-10-12 10:55:00,
2013-10-12 08:00:00,38.4,35.2,30.38,NE,49,0.0,0.0,88,0.00,,,0.00,Wunderground v.1.15,2013-10-12 11:00:00,
2013-10-12 08:05:00,38.6,35.4,30.38,NE,51,0.0,0.0,88,0.00,,,0.00,Wunderground v.1.15,2013-10-12 11:05:00,
2013-10-12 08:10:00,39.0,35.7,30.38,NE,46,0.0,0.0,88,0.00,,,0.00,Wunderground v.1.15,2013-10-12 11:10:00,
2013-10-12 08:15:00,39.6,36.3,30.39,NNE,26,1.0,2.0,88,0.00,,,0.00,Wunderground v.1.15,2013-10-12 11:15:00,
2013-10-12 08:20:00,40.4,36.8,30.39,NE,39,1.0,1.0,87,0.00,,,0.00,Wunderground v.1.15,2013-10-12 11:20:00,
2013-10-12 08:25:00,41.2,37.3,30.39,NE,46,2.0,2.0,86,0.00,,,0.00,Wunderground v.1.15,2013-10-12 11:25:00,
2013-10-12 08:35:00,42.9,38.4,30.39,ENE,59,2.0,3.0,84,0.00,,,0.00,Wunderground v.1.15,2013-10-12 11:35:00,
2013-10-12 08:45:00,43.8,38.3,30.39,NE,34,2.0,4.0,81,0.00,,,0.00,Wunderground v.1.15,2013-10-12 11:45:00,
2013-10-12 08:50:00,43.9,38.1,30.39,NE,53,2.0,4.0,80,0.00,,,0.00,Wunderground v.1.15,2013-10-12 11:50:00,
2013-10-12 09:00:00,44.3,38.5,30.39,NE,34,2.0,3.0,80,0.00,,,0.00,Wunderground v.1.15,2013-10-12 12:00:00,
2013-10-12 09:05:00,44.8,39.0,30.39,NNE,22,2.0,3.0,80,0.00,,,0.00,Wunderground v.1.15,2013-10-12 12:05:00,
2013-10-12 09:10:00,45.4,38.6,30.39,NE,49,3.0,3.0,77,0.00,,,0.00,Wunderground v.1.15,2013-10-12 12:10:00,
2013-10-12 09:15:00,45.5,38.0,30.39,East,90,4.0,6.0,75,0.00,,,0.00,Wunderground v.1.15,2013-10-12 12:15:00,
2013-10-12 09:20:00,45.6,38.1,30.39,NE,51,5.0,5.0,75,0.00,,,0.00,Wunderground v.1.15,2013-10-12 12:20:00,
2013-10-12 09:30:00,46.7,39.2,30.39,NNE,25,4.0,9.0,75,0.00,,,0.00,Wunderground v.1.15,2013-10-12 12:30:00,
2013-10-12 09:35:00,46.5,38.0,30.40,NE,40,5.0,9.0,72,0.00,,,0.00,Wunderground v.1.15,2013-10-12 12:35:00,
2013-10-12 09:40:00,46.1,37.9,30.40,ENE,61,6.0,6.0,73,0.00,,,0.00,Wunderground v.1.15,2013-10-12 12:40:00,
2013-10-12 09:45:00,46.4,38.9,30.40,NE,34,5.0,6.0,75,0.00,,,0.00,Wunderground v.1.15,2013-10-12 12:45:00,
2013-10-12 09:50:00,46.6,38.4,30.40,NE,38,5.0,10.0,73,0.00,,,0.00,Wunderground v.1.15,2013-10-12 12:50:00,
2013-10-12 09:55:00,46.7,38.5,30.40,East,79,5.0,10.0,73,0.00,,,0.00,Wunderground v.1.15,2013-10-12 12:55:00,
2013-10-12 10:05:00,47.4,38.5,30.40,NE,39,6.0,6.0,71,0.00,,,0.00,Wunderground v.1.15,2013-10-12 13:05:00,
2013-10-12 10:10:00,47.8,39.2,30.40,ENE,69,5.0,5.0,72,0.00,,,0.00,Wunderground v.1.15,2013-10-12 13:10:00,
2013-10-12 10:15:00,47.0,37.4,30.40,North,360,6.0,6.0,69,0.00,,,0.00,Wunderground v.1.15,2013-10-12 13:15:00,
2013-10-12 10:20:00,46.5,37.6,30.41,NNE,30,6.0,6.0,71,0.00,,,0.00,Wunderground v.1.15,2013-10-12 13:20:00,
2013-10-12 10:25:00,46.2,37.3,30.41,NE,47,5.0,6.0,71,0.00,,,0.00,Wunderground v.1.15,2013-10-12 13:25:00,
2013-10-12 10:30:00,46.1,37.6,30.41,NE,51,6.0,6.0,72,0.00,,,0.00,Wunderground v.1.15,2013-10-12 13:30:00,
2013-10-12 10:35:00,47.0,37.7,30.41,NE,45,6.0,7.0,70,0.00,,,0.00,Wunderground v.1.15,2013-10-12 13:35:00,
2013-10-12 10:40:00,47.8,38.5,30.41,SE,128,6.0,6.0,70,0.00,,,0.00,Wunderground v.1.15,2013-10-12 13:40:00,
2013-10-12 10:45:00,48.5,39.2,30.41,NE,34,6.0,8.0,70,0.00,,,0.00,Wunderground v.1.15,2013-10-12 13:45:00,
2013-10-12 10:55:00,47.0,37.0,30.42,NE,46,6.0,6.0,68,0.00,,,0.00,Wunderground v.1.15,2013-10-12 13:55:00,
2013-10-12 11:00:00,47.2,38.6,30.42,North,5,5.0,5.0,72,0.00,,,0.00,Wunderground v.1.15,2013-10-12 14:00:00,
2013-10-12 11:05:00,47.6,38.7,30.42,NE,40,5.0,5.0,71,0.00,,,0.00,Wunderground v.1.15,2013-10-12 14:05:00,
2013-10-12 11:10:00,47.6,38.7,30.42,NE,54,5.0,7.0,71,0.00,,,0.00,Wunderground v.1.15,2013-10-12 14:10:00,
2013-10-12 11:15:00,47.6,38.7,30.42,ENE,70,5.0,7.0,71,0.00,,,0.00,Wunderground v.1.15,2013-10-12 14:15:00,
2013-10-12 11:20:00,47.5,38.6,30.42,ENE,61,5.0,7.0,71,0.00,,,0.00,Wunderground v.1.15,2013-10-12 14:20:00,
2013-10-12 11:25:00,47.3,38.4,30.42,NE,40,4.0,7.0,71,0.00,,,0.00,Wunderground v.1.15,2013-10-12 14:25:00,
2013-10-12 11:30:00,47.1,38.2,30.42,NE,36,4.0,4.0,71,0.00,,,0.00,Wunderground v.1.15,2013-10-12 14:30:00,
2013-10-12 11:35:00,46.7,37.4,30.42,ENE,77,4.0,4.0,70,0.00,,,0.00,Wunderground v.1.15,2013-10-12 14:35:00,
2013-10-12 11:40:00,47.4,38.8,30.42,NNE,19,4.0,7.0,72,0.00,,,0.00,Wunderground v.1.15,2013-10-12 14:40:00,
2013-10-12 11:45:00,48.0,37.9,30.43,NE,42,4.0,7.0,68,0.00,,,0.00,Wunderground v.1.15,2013-10-12 14:45:00,
2013-10-12 11:56:00,47.7,37.3,30.43,ENE,73,6.0,7.0,67,0.00,,,0.00,Wunderground v.1.15,2013-10-12 14:56:00,
2013-10-12 12:00:00,47.8,37.0,30.42,ENE,59,5.0,5.0,66,0.00,,,0.00,Wunderground v.1.15,2013-10-12 15:00:00,
2013-10-12 12:06:00,47.5,36.7,30.43,NE,36,5.0,9.0,66,0.00,,,0.00,Wunderground v.1.15,2013-10-12 15:06:00,
2013-10-12 12:10:00,47.2,37.2,30.43,NE,51,6.0,6.0,68,0.00,,,0.00,Wunderground v.1.15,2013-10-12 15:10:00,
2013-10-12 12:15:00,47.2,37.2,30.43,East,88,5.0,7.0,68,0.00,,,0.00,Wunderground v.1.15,2013-10-12 15:15:00,
2013-10-12 12:21:00,47.3,37.3,30.43,ENE,67,4.0,4.0,68,0.00,,,0.00,Wunderground v.1.15,2013-10-12 15:21:00,
2013-10-12 12:26:00,47.3,36.9,30.43,NNE,15,4.0,6.0,67,0.00,,,0.00,Wunderground v.1.15,2013-10-12 15:26:00,
2013-10-12 12:30:00,47.1,37.1,30.43,NE,37,5.0,5.0,68,0.00,,,0.00,Wunderground v.1.15,2013-10-12 15:30:00,
2013-10-12 12:36:00,47.1,37.1,30.43,ENE,74,5.0,7.0,68,0.00,,,0.00,Wunderground v.1.15,2013-10-12 15:36:00,
2013-10-12 12:41:00,47.0,37.4,30.43,NE,53,5.0,5.0,69,0.00,,,0.00,Wunderground v.1.15,2013-10-12 15:41:00,
2013-10-12 12:46:00,46.7,37.1,30.43,ENE,77,5.0,5.0,69,0.00,,,0.00,Wunderground v.1.15,2013-10-12 15:46:00,
2013-10-12 12:51:00,46.7,37.4,30.43,ENE,69,4.0,4.0,70,0.00,,,0.00,Wunderground v.1.15,2013-10-12 15:51:00,
2013-10-12 12:56:00,46.6,37.3,30.43,ENE,59,4.0,8.0,70,0.00,,,0.00,Wunderground v.1.15,2013-10-12 15:56:00,
2013-10-12 13:06:00,46.8,36.8,30.43,NNE,30,4.0,5.0,68,0.00,,,0.00,Wunderground v.1.15,2013-10-12 16:06:00,
2013-10-12 13:10:00,46.9,37.3,30.43,East,80,5.0,5.0,69,0.00,,,0.00,Wunderground v.1.15,2013-10-12 16:10:00,
2013-10-12 13:16:00,46.9,36.9,30.43,NE,39,5.0,5.0,68,0.00,,,0.00,Wunderground v.1.15,2013-10-12 16:16:00,
2013-10-12 13:20:00,46.9,36.5,30.42,ENE,70,5.0,5.0,67,0.00,,,0.00,Wunderground v.1.15,2013-10-12 16:20:00,
2013-10-12 13:26:00,47.0,36.6,30.42,NE,39,5.0,5.0,67,0.00,,,0.00,Wunderground v.1.15,2013-10-12 16:26:00,
2013-10-12 13:30:00,47.2,37.5,30.42,East,98,5.0,6.0,69,0.00,,,0.00,Wunderground v.1.15,2013-10-12 16:30:00,
2013-10-12 13:36:00,47.5,37.1,30.42,NNE,17,5.0,6.0,67,0.00,,,0.00,Wunderground v.1.15,2013-10-12 16:36:00,
2013-10-12 13:40:00,47.5,36.7,30.42,ENE,57,5.0,12.0,66,0.00,,,0.00,Wunderground v.1.15,2013-10-12 16:40:00,
2013-10-12 13:46:00,47.3,37.3,30.42,NNE,15,5.0,12.0,68,0.00,,,0.00,Wunderground v.1.15,2013-10-12 16:46:00,
2013-10-12 13:51:00,47.1,36.7,30.42,NNE,33,5.0,5.0,67,0.00,,,0.00,Wunderground v.1.15,2013-10-12 16:51:00,
2013-10-12 13:56:00,46.8,35.6,30.42,ENE,57,5.0,7.0,65,0.00,,,0.00,Wunderground v.1.15,2013-10-12 16:56:00,
2013-10-12 14:01:00,46.5,35.4,30.42,East,89,5.0,5.0,65,0.00,,,0.00,Wunderground v.1.15,2013-10-12 17:01:00,
2013-10-12 14:06:00,46.8,36.8,30.42,East,92,4.0,6.0,68,0.00,,,0.00,Wunderground v.1.15,2013-10-12 17:06:00,
2013-10-12 14:11:00,46.9,36.9,30.42,ESE,113,3.0,3.0,68,0.00,,,0.00,Wunderground v.1.15,2013-10-12 17:11:00,
2013-10-12 14:16:00,46.8,36.4,30.42,ENE,57,4.0,4.0,67,0.00,,,0.00,Wunderground v.1.15,2013-10-12 17:16:00,
2013-10-12 14:26:00,46.9,37.3,30.42,ENE,60,3.0,4.0,69,0.00,,,0.00,Wunderground v.1.15,2013-10-12 17:26:00,
2013-10-12 14:31:00,47.0,37.0,30.42,NE,51,3.0,5.0,68,0.00,,,0.00,Wunderground v.1.15,2013-10-12 17:31:00,
2013-10-12 14:36:00,46.8,36.8,30.42,ENE,61,3.0,3.0,68,0.00,,,0.00,Wunderground v.1.15,2013-10-12 17:36:00,
2013-10-12 14:41:00,46.7,37.1,30.42,NNE,30,3.0,3.0,69,0.00,,,0.00,Wunderground v.1.15,2013-10-12 17:41:00,
2013-10-12 14:51:00,47.0,36.6,30.42,NE,54,3.0,3.0,67,0.00,,,0.00,Wunderground v.1.15,2013-10-12 17:51:00,
2013-10-12 14:56:00,47.2,36.8,30.42,ENE,69,3.0,3.0,67,0.00,,,0.00,Wunderground v.1.15,2013-10-12 17:56:00,
2013-10-12 15:01:00,46.9,36.5,30.42,NE,56,3.0,3.0,67,0.00,,,0.00,Wunderground v.1.15,2013-10-12 18:01:00,
2013-10-12 15:06:00,46.5,36.1,30.42,North,360,4.0,4.0,67,0.00,,,0.00,Wunderground v.1.15,2013-10-12 18:06:00,
2013-10-12 15:11:00,46.3,36.3,30.42,North,5,4.0,4.0,68,0.00,,,0.00,Wunderground v.1.15,2013-10-12 18:11:00,
2013-10-12 15:16:00,46.3,36.3,30.42,East,92,3.0,4.0,68,0.00,,,0.00,Wunderground v.1.15,2013-10-12 18:16:00,
2013-10-12 15:21:00,46.3,36.3,30.42,NE,54,3.0,3.0,68,0.00,,,0.00,Wunderground v.1.15,2013-10-12 18:21:00,
2013-10-12 15:26:00,46.4,36.4,30.42,NE,54,2.0,3.0,68,0.00,,,0.00,Wunderground v.1.15,2013-10-12 18:26:00,
2013-10-12 15:31:00,46.4,36.0,30.42,NNE,21,2.0,5.0,67,0.00,,,0.00,Wunderground v.1.15,2013-10-12 18:31:00,
2013-10-12 15:36:00,46.3,35.9,30.42,East,101,3.0,5.0,67,0.00,,,0.00,Wunderground v.1.15,2013-10-12 18:36:00,
2013-10-12 15:41:00,46.2,36.2,30.42,East,83,3.0,3.0,68,0.00,,,0.00,Wunderground v.1.15,2013-10-12 18:41:00,
2013-10-12 15:46:00,46.1,35.7,30.42,ENE,67,3.0,3.0,67,0.00,,,0.00,Wunderground v.1.15,2013-10-12 18:46:00,
2013-10-12 15:51:00,46.1,36.5,30.42,NE,35,3.0,3.0,69,0.00,,,0.00,Wunderground v.1.15,2013-10-12 18:51:00,
2013-10-12 15:56:00,46.3,36.3,30.42,East,99,2.0,3.0,68,0.00,,,0.00,Wunderground v.1.15,2013-10-12 18:56:00,
2013-10-12 16:01:00,46.2,36.2,30.42,ENE,59,3.0,3.0,68,0.00,,,0.00,Wunderground v.1.15,2013-10-12 19:01:00,
2013-10-12 16:06:00,46.2,36.2,30.42,ENE,68,3.0,3.0,68,0.00,,,0.00,Wunderground v.1.15,2013-10-12 19:06:00,
2013-10-12 16:11:00,46.3,36.7,30.42,NE,56,3.0,3.0,69,0.00,,,0.00,Wunderground v.1.15,2013-10-12 19:11:00,
2013-10-12 16:16:00,46.4,36.4,30.42,NNE,30,3.0,3.0,68,0.00,,,0.00,Wunderground v.1.15,2013-10-12 19:16:00,
2013-10-12 16:21:00,47.1,37.1,30.42,NE,39,3.0,3.0,68,0.00,,,0.00,Wunderground v.1.15,2013-10-12 19:21:00,
2013-10-12 16:26:00,48.2,37.4,30.42,East,85,3.0,10.0,66,0.00,,,0.00,Wunderground v.1.15,2013-10-12 19:26:00,
2013-10-12 16:31:00,47.8,36.2,30.42,East,82,4.0,5.0,64,0.00,,,0.00,Wunderground v.1.15,2013-10-12 19:31:00,
2013-10-12 16:36:00,46.8,35.3,30.42,East,84,4.0,5.0,64,0.00,,,0.00,Wunderground v.1.15,2013-10-12 19:36:00,
2013-10-12 16:41:00,46.2,35.5,30.42,NNE,32,3.0,3.0,66,0.00,,,0.00,Wunderground v.1.15,2013-10-12 19:41:00,
2013-10-12 16:46:00,46.3,36.3,30.42,NE,48,2.0,3.0,68,0.00,,,0.00,Wunderground v.1.15,2013-10-12 19:46:00,
2013-10-12 16:51:00,47.0,36.6,30.43,NE,44,3.0,7.0,67,0.00,,,0.00,Wunderground v.1.15,2013-10-12 19:51:00,
2013-10-12 16:56:00,46.9,35.7,30.43,SE,144,3.0,7.0,65,0.00,,,0.00,Wunderground v.1.15,2013-10-12 19:56:00,
2013-10-12 17:01:00,46.7,36.3,30.43,NE,46,2.0,2.0,67,0.00,,,0.00,Wunderground v.1.15,2013-10-12 20:01:00,
2013-10-12 17:06:00,46.8,36.0,30.43,NE,40,2.0,2.0,66,0.00,,,0.00,Wunderground v.1.15,2013-10-12 20:06:00,
2013-10-12 17:11:00,47.1,36.7,30.43,ENE,72,2.0,2.0,67,0.00,,,0.00,Wunderground v.1.15,2013-10-12 20:11:00,
2013-10-12 17:16:00,47.1,35.9,30.43,ENE,73,3.0,3.0,65,0.00,,,0.00,Wunderground v.1.15,2013-10-12 20:16:00,
2013-10-12 17:21:00,46.6,35.8,30.43,NE,47,3.0,3.0,66,0.00,,,0.00,Wunderground v.1.15,2013-10-12 20:21:00,
2013-10-12 17:27:00,45.8,35.5,30.43,NE,43,3.0,3.0,67,0.00,,,0.00,Wunderground v.1.15,2013-10-12 20:27:00,
2013-10-12 17:36:00,45.1,35.2,30.44,NNE,25,1.0,2.0,68,0.00,,,0.00,Wunderground v.1.15,2013-10-12 20:36:00,
2013-10-12 17:41:00,44.8,35.6,30.43,NE,42,1.0,1.0,70,0.00,,,0.00,Wunderground v.1.15,2013-10-12 20:41:00,
2013-10-12 17:46:00,44.5,35.0,30.43,NE,55,1.0,1.0,69,0.00,,,0.00,Wunderground v.1.15,2013-10-12 20:46:00,
2013-10-12 17:52:00,44.3,35.1,30.43,NE,51,1.0,2.0,70,0.00,,,0.00,Wunderground v.1.15,2013-10-12 20:52:00,
2013-10-12 17:57:00,44.3,35.1,30.43,East,80,1.0,2.0,70,0.00,,,0.00,Wunderground v.1.15,2013-10-12 20:57:00,
2013-10-12 18:02:00,44.3,35.5,30.43,NE,56,0.0,0.0,71,0.00,,,0.00,Wunderground v.1.15,2013-10-12 21:02:00,
2013-10-12 18:07:00,44.3,35.5,30.43,ENE,60,0.0,0.0,71,0.00,,,0.00,Wunderground v.1.15,2013-10-12 21:07:00,
2013-10-12 18:11:00,44.0,35.2,30.43,ENE,74,0.0,0.0,71,0.00,,,0.00,Wunderground v.1.15,2013-10-12 21:11:00,
2013-10-12 18:16:00,43.7,35.3,30.42,ENE,74,0.0,0.0,72,0.00,,,0.00,Wunderground v.1.15,2013-10-12 21:16:00,
2013-10-12 18:27:00,42.9,35.5,30.43,ENE,74,0.0,0.0,75,0.00,,,0.00,Wunderground v.1.15,2013-10-12 21:27:00,
2013-10-12 18:31:00,42.6,35.2,30.43,ENE,74,0.0,0.0,75,0.00,,,0.00,Wunderground v.1.15,2013-10-12 21:31:00,
2013-10-12 18:36:00,42.1,35.1,30.43,ENE,74,0.0,0.0,76,0.00,,,0.00,Wunderground v.1.15,2013-10-12 21:36:00,
2013-10-12 18:42:00,41.6,34.9,30.43,ENE,74,0.0,0.0,77,0.00,,,0.00,Wunderground v.1.15,2013-10-12 21:42:00,
2013-10-12 18:47:00,41.0,34.7,30.43,ENE,74,0.0,0.0,78,0.00,,,0.00,Wunderground v.1.15,2013-10-12 21:47:00,
2013-10-12 18:52:00,40.6,34.6,30.43,ENE,74,0.0,0.0,79,0.00,,,0.00,Wunderground v.1.15,2013-10-12 21:52:00,
2013-10-12 18:57:00,40.4,34.4,30.43,ENE,74,0.0,0.0,79,0.00,,,0.00,Wunderground v.1.15,2013-10-12 21:57:00,
2013-10-12 19:02:00,40.3,34.3,30.43,ENE,74,0.0,0.0,79,0.00,,,0.00,Wunderground v.1.15,2013-10-12 22:02:00,
2013-10-12 19:06:00,39.9,33.9,30.43,ENE,74,0.0,0.0,79,0.00,,,0.00,Wunderground v.1.15,2013-10-12 22:06:00,
2013-10-12 19:12:00,39.3,33.6,30.43,ENE,74,0.0,0.0,80,0.00,,,0.00,Wunderground v.1.15,2013-10-12 22:12:00,
2013-10-12 19:16:00,38.9,33.6,30.43,ENE,74,0.0,0.0,81,0.00,,,0.00,Wunderground v.1.15,2013-10-12 22:16:00,
2013-10-12 19:21:00,38.8,33.5,30.43,ENE,74,0.0,1.0,81,0.00,,,0.00,Wunderground v.1.15,2013-10-12 22:21:00,
2013-10-12 19:27:00,38.7,33.7,30.43,ENE,74,0.0,1.0,82,0.00,,,0.00,Wunderground v.1.15,2013-10-12 22:27:00,
2013-10-12 19:32:00,38.7,33.7,30.43,ENE,74,0.0,0.0,82,0.00,,,0.00,Wunderground v.1.15,2013-10-12 22:32:00,
2013-10-12 19:37:00,38.7,33.7,30.43,ENE,74,0.0,0.0,82,0.00,,,0.00,Wunderground v.1.15,2013-10-12 22:37:00,
2013-10-12 19:42:00,38.5,33.5,30.43,ENE,74,0.0,0.0,82,0.00,,,0.00,Wunderground v.1.15,2013-10-12 22:42:00,
2013-10-12 19:47:00,38.2,33.2,30.43,ENE,74,0.0,0.0,82,0.00,,,0.00,Wunderground v.1.15,2013-10-12 22:47:00,
2013-10-12 20:01:00,37.4,33.0,30.43,ENE,74,0.0,0.0,84,0.00,,,0.00,Wunderground v.1.15,2013-10-12 23:01:00,
2013-10-12 20:07:00,37.2,33.1,30.44,ENE,74,0.0,0.0,85,0.00,,,0.00,Wunderground v.1.15,2013-10-12 23:07:00,
2013-10-12 20:12:00,37.0,32.9,30.44,ENE,74,0.0,0.0,85,0.00,,,0.00,Wunderground v.1.15,2013-10-12 23:12:00,
2013-10-12 20:17:00,36.8,32.7,30.44,ENE,74,0.0,0.0,85,0.00,,,0.00,Wunderground v.1.15,2013-10-12 23:17:00,
2013-10-12 20:22:00,36.5,32.7,30.44,ENE,74,0.0,0.0,86,0.00,,,0.00,Wunderground v.1.15,2013-10-12 23:22:00,
2013-10-12 20:27:00,36.3,32.5,30.44,ENE,74,0.0,0.0,86,0.00,,,0.00,Wunderground v.1.15,2013-10-12 23:27:00,
2013-10-12 20:32:00,36.0,32.5,30.44,ENE,74,0.0,0.0,87,0.00,,,0.00,Wunderground v.1.15,2013-10-12 23:32:00,
2013-10-12 20:37:00,35.8,32.3,30.44,ENE,74,0.0,0.0,87,0.00,,,0.00,Wunderground v.1.15,2013-10-12 23:37:00,
2013-10-12 20:47:00,35.4,32.2,30.44,ENE,74,0.0,0.0,88,0.00,,,0.00,Wunderground v.1.15,2013-10-12 23:47:00,
2013-10-12 20:52:00,35.1,31.9,30.44,ENE,74,0.0,0.0,88,0.00,,,0.00,Wunderground v.1.15,2013-10-12 23:52:00,
2013-10-12 20:57:00,34.8,31.6,30.44,ENE,74,0.0,0.0,88,0.00,,,0.00,Wunderground v.1.15,2013-10-12 23:57:00,
2013-10-12 21:02:00,34.6,31.7,30.44,ENE,74,0.0,0.0,89,0.00,,,0.00,Wunderground v.1.15,2013-10-13 00:02:00,
2013-10-12 21:07:00,34.4,31.5,30.44,ENE,74,0.0,0.0,89,0.00,,,0.00,Wunderground v.1.15,2013-10-13 00:07:00,
2013-10-12 21:12:00,34.2,31.3,30.45,ENE,74,0.0,0.0,89,0.00,,,0.00,Wunderground v.1.15,2013-10-13 00:12:00,
2013-10-12 21:17:00,34.0,31.4,30.45,ENE,74,0.0,0.0,90,0.00,,,0.00,Wunderground v.1.15,2013-10-13 00:17:00,
2013-10-12 21:22:00,34.1,31.7,30.45,ENE,74,0.0,0.0,91,0.00,,,0.00,Wunderground v.1.15,2013-10-13 00:22:00,
2013-10-12 21:27:00,34.2,32.1,30.45,ENE,74,0.0,0.0,92,0.00,,,0.00,Wunderground v.1.15,2013-10-13 00:27:00,
2013-10-12 21:32:00,34.4,32.3,30.45,ENE,74,0.0,0.0,92,0.00,,,0.00,Wunderground v.1.15,2013-10-13 00:32:00,
2013-10-12 21:37:00,34.5,32.1,30.45,ENE,74,0.0,0.0,91,0.00,,,0.00,Wunderground v.1.15,2013-10-13 00:37:00,
2013-10-12 21:42:00,34.4,32.0,30.45,ENE,74,0.0,0.0,91,0.00,,,0.00,Wunderground v.1.15,2013-10-13 00:42:00,
2013-10-12 21:47:00,34.1,31.5,30.45,ENE,74,0.0,0.0,90,0.00,,,0.00,Wunderground v.1.15,2013-10-13 00:47:00,
2013-10-12 21:57:00,33.4,30.8,30.45,ENE,74,0.0,0.0,90,0.00,,,0.00,Wunderground v.1.15,2013-10-13 00:57:00,
2013-10-12 22:02:00,33.1,30.5,30.45,ENE,74,0.0,0.0,90,0.00,,,0.00,Wunderground v.1.15,2013-10-13 01:02:00,
2013-10-12 22:07:00,32.9,30.3,30.45,ENE,74,0.0,0.0,90,0.00,,,0.00,Wunderground v.1.15,2013-10-13 01:07:00,
2013-10-12 22:12:00,32.7,30.1,30.45,ENE,74,0.0,0.0,90,0.00,,,0.00,Wunderground v.1.15,2013-10-13 01:12:00,
2013-10-12 22:17:00,32.4,30.1,30.45,ENE,74,0.0,0.0,91,0.00,,,0.00,Wunderground v.1.15,2013-10-13 01:17:00,
2013-10-12 22:22:00,32.0,29.4,30.45,ENE,73,0.0,0.0,90,0.00,,,0.00,Wunderground v.1.15,2013-10-13 01:22:00,
2013-10-12 22:27:00,31.6,29.0,30.45,ENE,73,0.0,0.0,90,0.00,,,0.00,Wunderground v.1.15,2013-10-13 01:27:00,
2013-10-12 22:37:00,31.1,28.8,30.45,ENE,73,0.0,0.0,91,0.00,,,0.00,Wunderground v.1.15,2013-10-13 01:37:00,
2013-10-12 22:42:00,30.8,28.5,30.45,ENE,73,0.0,0.0,91,0.00,,,0.00,Wunderground v.1.15,2013-10-13 01:42:00,
2013-10-12 22:47:00,30.5,27.9,30.45,ENE,73,0.0,0.0,90,0.00,,,0.00,Wunderground v.1.15,2013-10-13 01:47:00,
2013-10-12 22:52:00,30.5,28.5,30.45,ENE,73,0.0,0.0,92,0.00,,,0.00,Wunderground v.1.15,2013-10-13 01:52:00,
2013-10-12 22:57:00,31.2,29.7,30.45,ENE,73,0.0,0.0,94,0.00,,,0.00,Wunderground v.1.15,2013-10-13 01:57:00,
2013-10-12 23:07:00,31.4,29.6,30.45,ENE,73,0.0,0.0,93,0.00,,,0.00,Wunderground v.1.15,2013-10-13 02:07:00,
2013-10-12 23:12:00,31.1,29.0,30.44,NNE,24,0.0,0.0,92,0.00,,,0.00,Wunderground v.1.15,2013-10-13 02:12:00,
2013-10-12 23:22:00,30.6,28.6,30.44,NNE,24,0.0,0.0,92,0.00,,,0.00,Wunderground v.1.15,2013-10-13 02:22:00,
2013-10-12 23:27:00,30.4,28.4,30.44,NNE,24,0.0,0.0,92,0.00,,,0.00,Wunderground v.1.15,2013-10-13 02:27:00,
2013-10-12 23:32:00,30.2,28.2,30.44,NNE,24,0.0,0.0,92,0.00,,,0.00,Wunderground v.1.15,2013-10-13 02:32:00,
2013-10-12 23:37:00,30.0,28.0,30.44,NNE,24,0.0,0.0,92,0.00,,,0.00,Wunderground v.1.15,2013-10-13 02:37:00,
2013-10-12 23:42:00,29.8,27.8,30.44,NNE,24,0.0,0.0,92,0.00,,,0.00,Wunderground v.1.15,2013-10-13 02:42:00,
2013-10-12 23:47:00,29.9,28.1,30.45,NNE,24,0.0,0.0,93,0.00,,,0.00,Wunderground v.1.15,2013-10-13 02:47:00,
2013-10-12 23:52:00,30.5,29.0,30.45,NNE,24,0.0,0.0,94,0.00,,,0.00,Wunderground v.1.15,2013-10-13 02:52:00,
2013-10-12 23:57:00,30.8,29.5,30.45,NNE,24,0.0,0.0,95,0.00,,,0.00,Wunderground v.1.15,2013-10-13 02:57:00,